KA5ZCI Weather Reports


Display with metric or nautical units.
time (UTC)temp
F
wind
direction
speed
MPH
gust
MPH
rain 1hr
in
rain 24hr
in
rain mn
in
humidity
%
barometer
mb
20260508093004 69 71 3.0 8.0 0.00 0.27 0.00 89 1013.5
20260508092504 69 72 5.0 12.0 0.00 0.27 0.00 88 1013.3
20260508091503 69 79 4.0 7.0 0.00 0.27 0.00 88 1013.7
20260508091004 69 62 5.0 10.0 0.00 0.27 0.00 88 1013.7
20260508090503 69 74 3.0 8.0 0.00 0.27 0.00 88 1013.6
20260508085504 70 78 6.0 12.0 0.00 0.27 0.00 87 1013.3
20260508085003 70 73 5.0 9.0 0.00 0.27 0.00 87 1013.4
20260508084504 70 71 2.0 7.0 0.00 0.27 0.00 87 1013.5
20260508084003 70 74 4.0 8.0 0.00 0.27 0.00 87 1013.6
20260508083504 70 59 2.0 8.0 0.00 0.27 0.00 87 1013.7
20260508082504 70 50 2.0 5.0 0.00 0.27 0.00 88 1013.9
20260508082003 70 84 5.0 7.0 0.00 0.27 0.00 87 1013.7
20260508081504 70 62 0.0 5.0 0.00 0.27 0.00 88 1013.7
20260508081004 70 86 2.0 7.0 0.00 0.27 0.00 87 1013.7
20260508080503 70 63 1.0 6.0 0.00 0.27 0.00 87 1013.7
20260508080004 70 80 2.0 5.0 0.00 0.27 0.00 87 1013.7
20260508075504 70 93 3.0 7.0 0.00 0.27 0.00 87 1013.7
20260508075003 70 60 3.0 8.0 0.00 0.27 0.00 87 1013.6
20260508074504 70 57 2.0 8.0 0.00 0.27 0.00 87 1013.7
20260508074004 70 70 2.0 6.0 0.00 0.27 0.00 87 1013.8
20260508073004 70 61 2.0 6.0 0.00 0.27 0.00 87 1013.9
20260508072504 70 75 1.0 7.0 0.00 0.28 0.00 87 1013.9
20260508072004 70 62 2.0 7.0 0.00 0.28 0.00 87 1013.8
20260508070503 70 53 2.0 7.0 0.00 0.28 0.00 87 1013.8
20260508070004 70 49 2.0 6.0 0.00 0.28 0.00 87 1013.7
20260508065004 70 54 3.0 7.0 0.00 0.29 0.00 87 1013.9
20260508064504 70 74 2.0 5.0 0.00 0.32 0.00 87 1013.9
20260508064004 70 32 1.0 2.0 0.00 0.32 0.00 87 1014.1
20260508063503 70 92 1.0 5.0 0.00 0.32 0.00 87 1014.3
20260508063004 70 64 1.0 3.0 0.00 0.32 0.00 87 1014.3
20260508062503 70 86 1.0 5.0 0.00 0.32 0.00 87 1014.3
20260508062004 70 69 0.0 0.0 0.00 0.32 0.00 88 1014.5
20260508061504 70 69 0.0 3.0 0.00 0.32 0.00 87 1014.5
20260508061005 70 25 2.0 7.0 0.00 0.32 0.00 86 1014.2
20260508060504 70 66 3.0 7.0 0.00 0.32 0.00 86 1014.1
20260508060004 70 62 1.0 6.0 0.00 0.32 0.00 87 1014.2
20260508055504 70 59 2.0 3.0 0.00 0.32 0.00 87 1014.2
20260508055003 70 59 2.0 5.0 0.00 0.32 0.00 87 1014.2
20260508054504 70 46 2.0 5.0 0.00 0.32 0.00 88 1014.3
20260508054004 70 69 1.0 3.0 0.00 0.32 0.00 87 1014.5
20260508053003 70 54 1.0 5.0 0.00 0.32 0.00 87 1014.7
20260508052503 69 69 2.0 6.0 0.00 0.32 0.00 88 1014.7
20260508052004 70 27 1.0 5.0 0.00 0.34 0.00 88 1014.7
20260508051004 70 62 0.0 0.0 0.00 0.34 0.00 88 1014.9
20260508050504 70 56 3.0 7.0 0.00 0.34 0.00 86 1014.6
20260508045504 70 66 2.0 5.0 0.00 0.34 0.34 86 1014.6
20260508045004 70 25 1.0 5.0 0.00 0.34 0.34 86 1014.7
20260508044504 70 55 2.0 8.0 0.00 0.34 0.34 86 1014.8
20260508044004 70 74 3.0 8.0 0.00 0.34 0.34 86 1014.9
20260508043504 70 38 1.0 3.0 0.00 0.34 0.34 86 1014.9
20260508042504 70 51 1.0 6.0 0.00 0.34 0.34 87 1015.2
20260508042004 70 20 1.0 5.0 0.00 0.34 0.34 87 1015.4
20260508041504 70 20 0.0 2.0 0.00 0.34 0.34 87 1015.3
20260508040504 70 65 2.0 6.0 0.00 0.35 0.34 85 1015.2
20260508040004 70 50 3.0 8.0 0.00 0.35 0.34 85 1015.1
20260508035504 70 63 3.0 8.0 0.00 0.35 0.34 85 1015.2
20260508035004 70 61 1.0 9.0 0.00 0.35 0.34 85 1015.3
20260508034503 71 66 5.0 9.0 0.00 0.35 0.34 84 1015.4
20260508033503 71 46 2.0 5.0 0.00 0.35 0.34 84 1015.5
20260508033004 71 53 2.0 6.0 0.00 0.35 0.34 84 1015.5
20260508032503 71 62 2.0 10.0 0.00 0.35 0.34 83 1015.4
20260508032004 71 53 3.0 7.0 0.00 0.35 0.34 83 1015.2
20260508031503 71 64 5.0 8.0 0.00 0.37 0.34 82 1015.3
20260508031004 72 66 5.0 9.0 0.00 0.37 0.34 83 1015.5
20260508030504 72 62 2.0 6.0 0.00 0.38 0.34 83 1015.6
20260508025504 72 78 5.0 9.0 0.00 0.41 0.34 82 1015.3
20260508025004 72 75 2.0 8.0 0.00 0.41 0.34 82 1015.2
20260508024504 72 66 3.0 8.0 0.00 0.41 0.34 82 1015.1
20260508024004 73 49 1.0 7.0 0.00 0.41 0.34 82 1015.1
20260508023504 73 73 1.0 6.0 0.00 0.41 0.34 82 1015.0
20260508023004 73 35 1.0 6.0 0.00 0.41 0.34 81 1014.9
20260508022503 73 69 2.0 6.0 0.00 0.41 0.34 80 1014.9
20260508022004 73 69 2.0 5.0 0.00 0.41 0.34 80 1014.8
20260508021504 73 62 4.0 10.0 0.00 0.41 0.34 80 1014.8
20260508020504 74 54 2.0 7.0 0.00 0.41 0.34 80 1014.8
20260508020004 74 77 2.0 7.0 0.00 0.41 0.34 80 1014.6
20260508015004 74 69 1.0 6.0 0.00 0.41 0.34 81 1014.7
20260508014003 74 51 2.0 6.0 0.00 0.41 0.34 83 1014.7
20260508013005 74 50 3.0 8.0 0.00 0.41 0.34 82 1014.5
20260508012503 74 31 0.0 0.0 0.00 0.41 0.34 84 1014.4
20260508012004 74 31 0.0 0.0 0.00 0.41 0.34 84 1014.4
20260508011504 74 31 0.0 0.0 0.00 0.41 0.34 82 1014.6
20260508011003 74 31 0.0 0.0 0.00 0.41 0.34 83 1014.5
20260508010504 74 31 0.0 0.0 0.00 0.41 0.34 83 1014.2
20260508010003 74 31 0.0 0.0 0.00 0.41 0.34 82 1014.1
20260508005504 75 31 0.0 1.0 0.00 0.41 0.34 80 1014.1
20260508004503 75 44 1.0 3.0 0.00 0.41 0.34 79 1013.7
20260508003504 75 50 1.0 6.0 0.00 0.41 0.34 79 1013.8
20260508003003 75 61 1.0 3.0 0.00 0.41 0.34 79 1013.9
20260508002504 75 14 2.0 5.0 0.00 0.41 0.34 79 1013.9
20260508002004 76 61 1.0 5.0 0.00 0.41 0.34 80 1013.8
20260508001503 76 42 0.0 2.0 0.00 0.41 0.34 80 1013.7
20260508001004 76 8 0.0 2.0 0.00 0.41 0.34 77 1013.6
20260508000503 76 81 1.0 3.0 0.00 0.41 0.34 77 1013.7
20260508000004 76 78 2.0 7.0 0.00 0.41 0.34 78 1013.7
20260507235003 76 43 1.0 5.0 0.00 0.41 0.34 78 1013.8
20260507233504 77 47 2.0 5.0 0.00 0.41 0.34 79 1013.8
20260507233004 77 54 0.0 3.0 0.00 0.41 0.34 80 1013.7
20260507232504 77 65 1.0 3.0 0.00 0.41 0.34 79 1013.8
20260507232004 77 116 1.0 2.0 0.00 0.41 0.34 77 1013.7
20260507231503 77 7 1.0 3.0 0.00 0.41 0.34 78 1013.8
20260507231004 77 42 0.0 3.0 0.00 0.41 0.34 78 1013.8
20260507230503 77 3 0.0 1.0 0.00 0.41 0.34 77 1013.8
20260507230005 77 0 0.0 0.0 0.00 0.41 0.34 79 1013.8
20260507225004 77 18 0.0 1.0 0.00 0.41 0.34 76 1013.9
20260507224504 77 17 0.0 2.0 0.00 0.41 0.34 77 1013.9
20260507224003 78 20 0.0 3.0 0.00 0.41 0.34 77 1013.9
20260507223504 78 44 0.0 3.0 0.00 0.41 0.34 76 1013.9
20260507223004 78 0 0.0 3.0 0.01 0.41 0.34 75 1013.9
20260507222503 78 158 0.0 3.0 0.01 0.41 0.34 75 1013.8
20260507222004 79 10 1.0 7.0 0.01 0.41 0.34 73 1013.8
20260507221504 79 348 0.0 1.0 0.01 0.41 0.34 72 1013.7
20260507221003 79 28 0.0 6.0 0.01 0.41 0.34 72 1013.6
20260507220504 79 41 0.0 3.0 0.01 0.41 0.34 72 1013.6
20260507220004 79 97 1.0 3.0 0.02 0.41 0.34 71 1013.5
20260507215004 80 20 1.0 3.0 0.02 0.42 0.34 70 1013.4
20260507214505 80 56 0.0 5.0 0.02 0.44 0.34 70 1013.4
20260507214004 80 45 1.0 3.0 0.02 0.44 0.34 71 1013.4
20260507213503 80 54 1.0 2.0 0.02 0.44 0.34 69 1013.4
20260507212504 79 48 1.0 3.0 0.01 0.43 0.33 73 1013.6
20260507212003 79 65 0.0 3.0 0.01 0.43 0.33 71 1013.5
20260507211504 79 62 1.0 3.0 0.01 0.43 0.33 72 1013.6
20260507211004 79 352 1.0 3.0 0.01 0.43 0.33 72 1013.6
20260507210504 79 38 1.0 2.0 0.01 0.43 0.33 74 1013.7
20260507210004 78 357 0.0 2.0 0.00 0.42 0.32 72 1013.7
20260507205003 77 324 1.0 3.0 0.00 0.44 0.32 75 1013.7
20260507204503 77 49 1.0 5.0 0.00 0.44 0.32 73 1013.7
20260507204003 77 90 1.0 3.0 0.00 0.44 0.32 75 1013.7
20260507203004 77 49 0.0 2.0 0.00 0.44 0.32 78 1013.6
20260507202504 76 52 0.0 2.0 0.00 0.44 0.32 80 1013.6
20260507202004 76 52 1.0 3.0 0.00 0.44 0.32 78 1013.7
20260507201503 75 75 1.0 5.0 0.00 0.44 0.32 78 1013.7
20260507200004 75 263 1.0 5.0 0.00 0.45 0.32 77 1013.9
20260507195004 75 55 1.0 5.0 0.00 0.45 0.32 80 1014.1
20260507194503 75 78 0.0 1.0 0.00 0.45 0.32 79 1014.2
20260507194004 74 7 0.0 3.0 0.00 0.48 0.32 79 1014.1
20260507193504 74 313 1.0 5.0 0.00 0.48 0.32 79 1014.2
20260507193004 74 315 0.0 0.0 0.01 0.48 0.32 79 1014.2
20260507192004 73 315 1.0 3.0 0.01 0.48 0.32 80 1014.4
20260507191503 73 287 0.0 1.0 0.01 0.48 0.32 80 1014.3
20260507191003 74 62 0.0 0.0 0.01 0.48 0.32 80 1014.4
20260507190504 73 62 0.0 1.0 0.01 0.48 0.32 80 1014.4
20260507185504 74 37 0.0 0.0 0.01 0.48 0.32 80 1014.4
20260507184504 74 72 2.0 3.0 0.01 0.48 0.32 81 1014.3
20260507183504 74 31 1.0 3.0 0.03 0.48 0.32 81 1014.3
20260507183004 74 11 0.0 1.0 0.02 0.47 0.31 80 1014.2
20260507182503 74 11 1.0 5.0 0.02 0.47 0.31 79 1014.2
20260507181504 74 24 1.0 5.0 0.02 0.47 0.31 83 1014.3
20260507181004 73 51 1.0 3.0 0.02 0.47 0.31 82 1014.5
20260507180004 73 78 1.0 5.0 0.02 0.47 0.31 82 1014.6
20260507175504 72 10 1.0 6.0 0.02 0.47 0.31 82 1014.6
20260507175004 72 63 3.0 8.0 0.04 0.47 0.31 84 1014.7
20260507174003 72 333 2.0 6.0 0.02 0.45 0.29 85 1014.8
20260507173504 72 30 1.0 8.0 0.02 0.45 0.29 85 1014.8
20260507173004 72 34 1.0 5.0 0.02 0.45 0.29 85 1014.8
20260507172503 71 298 1.0 6.0 0.02 0.45 0.29 86 1014.7
20260507171503 71 315 0.0 3.0 0.03 0.45 0.29 87 1014.9
20260507170003 70 336 0.0 5.0 0.04 0.45 0.29 91 1014.8
20260507165504 70 31 1.0 3.0 0.05 0.45 0.29 91 1014.9
20260507165004 69 80 0.0 3.0 0.03 0.43 0.27 92 1015.1
20260507164503 69 257 0.0 3.0 0.03 0.43 0.27 92 1015.1
20260507164003 69 5 1.0 5.0 0.04 0.43 0.27 92 1015.1
20260507163504 69 42 2.0 6.0 0.04 0.43 0.27 91 1015.3
20260507163004 70 349 1.0 3.0 0.04 0.43 0.27 90 1015.1
20260507162503 70 326 1.0 3.0 0.04 0.43 0.27 89 1015.2
20260507162004 71 11 2.0 7.0 0.04 0.42 0.26 87 1015.2
20260507161504 71 331 0.0 3.0 0.05 0.42 0.26 86 1015.0
20260507161004 71 1 0.0 0.0 0.04 0.41 0.25 86 1015.0
20260507160504 71 1 0.0 3.0 0.06 0.41 0.25 87 1014.9
20260507160004 71 347 0.0 5.0 0.06 0.41 0.25 87 1014.9
20260507155504 71 333 1.0 5.0 0.05 0.40 0.24 86 1014.9
20260507155003 71 15 0.0 1.0 0.05 0.40 0.24 87 1014.9
20260507154504 71 47 1.0 6.0 0.06 0.40 0.24 87 1014.9
20260507154004 71 19 0.0 3.0 0.07 0.39 0.23 88 1014.9
20260507153504 71 16 0.0 5.0 0.08 0.39 0.23 88 1014.8
20260507153004 71 34 1.0 5.0 0.09 0.39 0.23 88 1014.9
20260507152503 71 35 1.0 7.0 0.09 0.39 0.23 88 1014.9
20260507152004 71 355 1.0 5.0 0.08 0.38 0.22 89 1014.9
20260507151504 71 335 1.0 6.0 0.07 0.37 0.21 88 1014.9
20260507151004 71 14 1.0 6.0 0.07 0.37 0.21 88 1014.9
20260507150004 71 358 1.0 5.0 0.06 0.35 0.19 89 1014.8
20260507145504 71 39 2.0 7.0 0.06 0.35 0.19 89 1014.8
20260507145004 71 5 1.0 5.0 0.07 0.35 0.19 90 1014.9
20260507144503 71 26 1.0 5.0 0.06 0.34 0.18 91 1014.9
20260507144004 71 10 2.0 7.0 0.04 0.32 0.16 90 1014.8
20260507143504 71 356 2.0 8.0 0.03 0.31 0.15 91 1014.8
20260507143004 71 336 2.0 10.0 0.02 0.30 0.14 90 1014.8
20260507142504 71 326 1.0 7.0 0.02 0.30 0.14 91 1014.7
20260507142004 71 340 2.0 7.0 0.02 0.30 0.14 91 1014.7
20260507140503 72 13 2.0 7.0 0.02 0.30 0.14 92 1014.7
20260507140004 72 7 1.0 3.0 0.01 0.29 0.13 92 1014.6
20260507135003 72 330 1.0 6.0 0.01 0.28 0.12 92 1014.5
20260507134003 72 18 0.0 1.0 0.01 0.28 0.12 93 1014.4
20260507133504 72 352 0.0 2.0 0.03 0.28 0.12 93 1014.4
20260507132503 72 25 2.0 6.0 0.03 0.28 0.12 93 1014.5
20260507132004 72 343 2.0 8.0 0.03 0.28 0.12 93 1014.4
20260507131504 72 310 3.0 6.0 0.03 0.28 0.12 92 1014.4
20260507131003 73 322 2.0 5.0 0.03 0.28 0.12 92 1014.3
20260507130504 73 282 1.0 6.0 0.03 0.28 0.12 92 1014.3
20260507130003 74 318 1.0 6.0 0.03 0.28 0.12 92 1014.1
20260507124003 76 19 2.0 8.0 0.02 0.27 0.11 89 1014.0
20260507123504 77 313 2.0 6.0 0.00 0.25 0.09 91 1013.8
20260507123003 77 274 5.0 6.0 0.00 0.25 0.09 91 1013.5
20260507122504 77 260 2.0 6.0 0.01 0.25 0.09 91 1013.4
20260507121004 78 222 1.0 8.0 0.02 0.25 0.09 90 1013.2
20260507120504 78 238 3.0 7.0 0.02 0.25 0.09 90 1013.2
20260507120004 78 265 4.0 7.0 0.02 0.25 0.09 90 1013.1
20260507115504 78 254 2.0 5.0 0.02 0.25 0.09 90 1013.0
20260507115004 78 235 3.0 7.0 0.02 0.25 0.09 90 1013.0
20260507114503 77 242 1.0 8.0 0.02 0.25 0.09 90 1013.0
20260507114003 77 248 3.0 5.0 0.02 0.25 0.09 90 1012.9
20260507113504 77 233 2.0 6.0 0.02 0.25 0.09 90 1012.8
20260507113004 77 237 3.0 7.0 0.02 0.25 0.09 90 1012.8
20260507111004 77 230 3.0 7.0 0.00 0.23 0.07 89 1012.2
20260507110503 77 275 2.0 5.0 0.00 0.23 0.07 89 1012.3
20260507110004 77 268 3.0 7.0 0.00 0.23 0.07 89 1012.2
20260507105504 77 234 3.0 6.0 0.00 0.23 0.07 89 1012.0
20260507105004 78 239 2.0 7.0 0.00 0.23 0.07 89 1011.9
20260507104504 77 220 3.0 8.0 0.00 0.23 0.07 89 1011.9
20260507104004 77 266 3.0 8.0 0.00 0.23 0.07 89 1011.8
20260507103504 78 236 3.0 9.0 0.00 0.23 0.07 89 1011.7
20260507103004 77 188 2.0 5.0 0.00 0.23 0.07 89 1011.7
20260507102503 77 231 2.0 5.0 0.00 0.23 0.07 89 1011.5
20260507102006 78 265 1.0 5.0 0.00 0.23 0.07 88 1011.5
20260507101504 77 235 2.0 5.0 0.00 0.23 0.07 88 1011.5
20260507101004 78 157 2.0 3.0 0.00 0.23 0.07 88 1011.5
20260507100504 78 257 2.0 7.0 0.00 0.23 0.07 88 1011.5
20260507100004 78 239 2.0 7.0 0.00 0.23 0.07 88 1011.5
20260507095504 78 245 2.0 5.0 0.00 0.23 0.07 88 1011.5
20260507095004 78 234 1.0 7.0 0.00 0.23 0.07 88 1011.5
20260507094504 78 244 3.0 7.0 0.00 0.23 0.07 88 1011.5
20260507094004 78 247 1.0 5.0 0.00 0.23 0.07 88 1011.4